Tracking 28794 objects as of 19-Apr-2024
HD Live streaming from Space Station
objects crossing your sky now

ATLAS 2A CENTAUR R/B

Track ATLAS 2A CENTAUR R/B now!
10-day predictions


NORAD ID: 26389
Int'l Code: 2000-034B
Perigee: 277.7 km
Apogee: 14,166.8 km
Inclination: 26.8 °
Period: 262.9 minutes
Semi major axis: 13593 km
RCS: 18.0297 m2 (large)
Launch date: June 30, 2000
Source: United States (US)
Launch site: AIR FORCE EASTERN TEST RANGE (AFETR)

Note: This is a ROCKET BODY
Your satellite tracking list
Your tracking list is empty




NASA's NSSDC Master Catalog

Two Line Element Set (TLE):
1 26389U 00034B   24110.46392122  .00021273  00000-0  21028-2 0  9992
2 26389  26.8408 245.7439 5108850  36.2948 349.3998  5.47796274372997
Source of the keplerian elements: AFSPC